Voltar ao catálogo

COSMOS 249 DEB

AtivoLEO
NORAD 14410·DEBRIS·🇷🇺 Russia

Lançado Oct 20, 1968 de Baikonur Cosmodrome

Loading…

Próximas Passagens (próximas 24 horas)

TLE

AtualizadoSource: Space-Track

Época: Sep 14, 2026, 04:42 UTC

1 14410U 68091CL  26257.19595799  .00003429  00000-0  11994-2 0  9994
2 14410  62.2015 324.9041 0301756 319.9416  68.6880 14.14274024116762

Acompanhe COSMOS 249 DEB em tempo real com AllMySat

Download on the App Store